[[{"header":{"parameterUnit":"m.s-1","parameterCategory":1,"la1":30.2991,"la2":30.254,"lo1":-89.0895,"lo2":-89.0444,"dy":0.0017,"dx":0.0017,"nx":28,"ny":28,"refTime":"2025-04-21T03:00:00:Z","depth":0,"parameterNumber":2,"parameterNumberName":"U-component_of_WINDS"},"data":[0,0,0,0,0,0,0,0,0,0,0,0,0,0,0,0,0,0,0,0,0,0,0,0,0,0,0,0,0,0,0,0,0,0,0,0,0,0,0,0,0,0,0,0,0,0,0,0,0,0,0,0,0,0,0,0,0,0,-3.2121,-3.2124,0,-3.2479,-3.2483,-3.2488,-3.2665,-3.2665,-3.2665,-3.2665,-3.3024,-3.3033,-3.3043,0,0,0,0,0,0,0,0,0,0,0,0,0,-3.1579,-3.1588,-3.212,-3.2125,-3.2129,-3.2479,-3.2484,-3.2489,-3.2665,-3.2665,-3.2665,-3.2665,-3.3021,-3.3032,-3.3043,0,0,0,0,0,0,0,0,0,0,0,0,0,-3.1863,-3.1591,-3.2119,-3.2259,-3.2276,-3.2478,-3.2484,-3.249,-3.2665,-3.2665,-3.2665,-3.2665,-3.3017,-3.3031,-3.3045,-3.3133,0,0,-3.3089,-3.3095,0,0,0,0,0,0,0,0,-3.1847,-3.1883,-3.2234,-3.225,-3.2269,-3.2528,-3.2425,-3.2705,-3.2665,-3.2517,-3.2665,-3.2665,-3.2858,-3.2885,-3.2953,-3.315,-3.3165,-3.309,-3.3099,-3.3105,-3.3109,0,0,0,0,0,0,0,-3.1827,-3.1868,-3.2262,-3.2239,-3.226,-3.2301,-3.2342,-3.2479,-3.2682,-3.2529,-3.2543,-3.2584,-3.2867,-3.2938,-3.2962,-3.317,-3.309,-3.3102,-3.3111,-3.3117,-3.3456,-3.3457,0,0,0,0,0,0,-3.1786,-3.1851,-3.2251,-3.2273,-3.2054,-3.2311,-3.2356,-3.2444,-3.2682,-3.2718,-3.2583,-3.2591,-3.2914,-3.2945,-3.2975,-3.3094,-3.3105,-3.3118,-3.3126,-3.3456,-3.3456,-3.3457,0,0,0,0,0,0,-3.1773,-3.182,-3.2236,-3.2066,-3.2122,-3.2321,-3.2417,-3.2451,-3.2523,-3.2722,-3.2759,-3.2619,-3.2915,-3.2955,-3.3093,-3.3109,-3.3125,-3.3138,-3.3455,-3.3456,-3.3456,-3.3331,0,0,0,0,0,0,-3.1757,-3.1814,-3.1852,-3.2066,-3.2131,-3.235,-3.2419,-3.2458,-3.2548,-3.2561,-3.2765,-3.2799,-3.2918,-3.307,-3.3107,-3.3129,-3.3149,-3.3455,-3.3456,-3.3456,-3.3335,-3.3328,-3.3322,0,0,0,0,0,-3.1737,-3.1801,-3.1853,-3.19,-3.2182,-3.2351,-3.2388,-3.2526,-3.2548,-3.2587,-3.2714,-3.2793,-3.3101,-3.3083,-3.3126,-3.3152,-3.3454,-3.3455,-3.3456,-3.3338,-3.3329,-3.3322,0,0,0,0,0,0,-3.1582,-3.1832,-3.1892,-3.2027,-3.2167,-3.238,-3.2433,-3.2512,-3.2646,-3.2652,-3.2814,-3.2859,-3.2981,-3.3081,-3.3056,-3.3249,-3.3285,-3.3294,-3.318,-3.3174,-3.3167,-3.3141,-3.3161,0,0,0,0,0,-3.1564,-3.1682,-3.1893,-3.1992,-3.2059,-3.2233,-3.2311,-3.2406,-3.2556,-3.2615,-3.2753,-3.2893,-3.3022,-3.3103,-3.3232,-3.3349,-3.3396,-3.3388,-3.3381,-3.3375,-3.3381,-3.345,-3.3449,-3.346,-3.346,-3.346,0,0,-3.1527,-3.1678,-3.1742,-3.1964,-3.2084,-3.22,-3.2282,-3.2402,-3.2489,-3.2632,-3.2772,-3.2877,-3.3044,-3.3171,-3.3234,-3.3258,-3.3389,-3.3376,-3.3369,-3.338,-3.3451,-3.345,-3.3449,-3.3461,-3.346,-3.346,0,0,-3.152,-3.1646,-3.1743,-3.186,-3.204,-3.2156,-3.2178,-3.238,-3.2456,-3.2599,-3.2709,-3.2813,-3.3031,-3.3146,-3.3232,-3.3265,-3.3342,-3.3302,-3.3268,-3.3332,-3.3332,-3.3332,-3.3344,-3.3346,-3.3308,-3.3308,-3.3308,0,-3.1451,-3.1634,-3.1781,-3.1896,-3.1989,-3.2126,-3.2223,-3.2329,-3.254,-3.26,-3.2624,-3.29,-3.3022,-3.3178,-3.3186,-3.3251,-3.3281,-3.3281,-3.332,-3.3322,-3.3324,-3.3337,-3.3341,-3.3302,-3.3303,-3.3303,-3.3304,0,-3.154,-3.1665,-3.172,-3.1924,-3.2023,-3.2127,-3.2288,-3.237,-3.2454,-3.2566,-3.2708,-3.2859,-3.3021,-3.3064,-3.3147,-3.3232,-3.3241,-3.3289,-3.3329,-3.3315,-3.333,-3.3336,-3.3293,-3.3296,-3.3297,-3.3299,0,0,-3.1448,-3.173,-3.1748,-3.1842,-3.2049,-3.2147,-3.2256,-3.2417,-3.2484,-3.2624,-3.2719,-3.29,-3.2947,-3.3044,-3.3141,-3.3197,-3.3214,-3.324,-3.3246,-3.323,-3.3315,-3.3278,-3.3281,-3.3265,-3.3267,-3.3268,-3.3302,0,-3.147,-3.1677,-3.1811,-3.1963,-3.2079,-3.2208,-3.2304,-3.2439,-3.2545,-3.2657,-3.2774,-3.29,-3.2952,-3.3012,-3.3073,-3.3198,-3.3233,-3.3198,-3.3353,-3.3357,-3.3309,-3.329,-3.3251,-3.3276,-3.3308,-3.3309,-3.331,0,-3.1525,-3.1664,-3.1827,-3.2021,-3.2075,-3.2158,-3.2316,-3.2422,-3.2577,-3.265,-3.2758,-3.2856,-3.2974,-3.3002,-3.3166,-3.3139,-3.321,-3.3281,-3.3285,-3.3306,-3.3333,-3.331,-3.3287,-3.329,-3.3321,-3.332,-3.3319,0,-3.1442,-3.1669,-3.1796,-3.1872,-3.2101,-3.2156,-3.2254,-3.2409,-3.2497,-3.2633,-3.2691,-3.2838,-3.2918,-3.3028,-3.3162,-3.317,-3.3312,-3.3351,-3.3375,-3.3371,-3.34,-3.3397,-3.3388,-3.3443,-3.3443,-3.3443,-3.3443,0,-3.1454,-3.1548,-3.1762,-3.184,-3.1949,-3.2101,-3.2204,-3.2312,-3.2449,-3.2548,-3.2668,-3.2758,-3.2929,-3.3039,-3.3144,-3.3263,-3.3298,-3.336,-3.3386,-3.335,-3.3342,-3.34,-3.3401,-3.3444,-3.3444,-3.3444,-3.3444,0,-3.138,-3.1527,-3.1674,-3.1878,-3.1932,-3.2003,-3.2177,-3.2257,-3.2369,-3.2493,-3.2531,-3.2706,-3.2842,-3.2986,-3.317,-3.324,-3.3355,-3.3392,-3.3303,-3.3319,-3.3335,-3.3331,-3.3364,-3.3376,-3.342,-3.342,-3.3419,0,-3.1378,-3.1455,-3.1667,-3.1744,-3.1839,-3.196,-3.205,-3.2201,-3.2289,-3.2471,-3.2528,-3.2673,-3.2798,-3.3008,-3.315,-3.3291,-3.3333,-3.3335,-3.3355,-3.3316,-3.3334,-3.3328,-3.3336,-3.3328,-3.3327,-3.3326,-3.3325,0,-3.136,-3.1429,-3.1556,-3.1707,-3.1812,-3.1938,-3.2068,-3.2123,-3.2299,-3.2392,-3.2534,-3.263,-3.2819,-3.2961,-3.3119,-3.3217,-3.33,-3.3318,-3.3331,-3.3295,-3.324,-3.327,-3.3286,-3.3317,-3.3317,-3.3318,-3.3319,-3.3319,-3.1324,-3.1397,-3.1558,-3.1695,-3.1809,-3.1927,-3.2012,-3.2135,-3.2257,-3.2424,-3.2504,-3.2645,-3.2797,-3.3018,-3.3113,-3.3224,-3.3249,-3.3267,-3.3272,-3.3275,-3.3266,-3.3221,-3.3253,-3.3253,-3.3254,-3.3254,-3.3255,0,-3.1312,-3.1421,-3.1546,-3.1725,-3.1831,-3.1902,-3.2049,-3.2133,-3.2257,-3.2392,-3.2512,-3.2674,-3.2812,-3.2964,-3.3111,-3.317,-3.3212,-3.3204,-3.3201,-3.3222,-3.3235,-3.3209,-3.3168,-3.3168,-3.3168,-3.3168,-3.3168,-3.3168,-3.1318,-3.1447,-3.1533,-3.1718,-3.1827,-3.1968,-3.2046,-3.2155,-3.2264,-3.244,-3.2556,-3.2655,-3.2797,-3.2955,-3.3084,-3.3125,-3.3173,-3.3154,-3.3206,-3.3215,-3.3222,-3.3228,-3.3205,-3.3163,-3.3163,-3.3185,-3.3185,-3.3185]},{"header":{"parameterUnit":"m.s-1","parameterCategory":1,"la1":30.2991,"la2":30.254,"lo1":-89.0895,"lo2":-89.0444,"dy":0.0017,"dx":0.0017,"nx":28,"ny":28,"refTime":"2025-04-21T03:00:00:Z","depth":0,"parameterNumber":3,"parameterNumberName":"V-component_of_WINDS"},"data":[0,0,0,0,0,0,0,0,0,0,0,0,0,0,0,0,0,0,0,0,0,0,0,0,0,0,0,0,0,0,0,0,0,0,0,0,0,0,0,0,0,0,0,0,0,0,0,0,0,0,0,0,0,0,0,0,0,0,5.7702,5.7703,0,5.7805,5.7807,5.7808,5.7727,5.7723,5.772,5.7716,5.7812,5.7818,5.7823,0,0,0,0,0,0,0,0,0,0,0,0,0,5.7423,5.7428,5.7702,5.7703,5.7705,5.7805,5.7807,5.7808,5.7727,5.7723,5.7719,5.7715,5.781,5.7817,5.7824,0,0,0,0,0,0,0,0,0,0,0,0,0,5.7537,5.743,5.7702,5.7677,5.7676,5.7805,5.7807,5.7808,5.7728,5.7723,5.7718,5.7713,5.7808,5.7816,5.7825,5.7982,0,0,5.7851,5.7855,0,0,0,0,0,0,0,0,5.753,5.7547,5.7679,5.7679,5.7678,5.7748,5.7743,5.7866,5.7729,5.7708,5.7716,5.771,5.7794,5.7804,5.7834,5.7986,5.799,5.7852,5.7857,5.7861,5.7863,0,0,0,0,0,0,0,5.7522,5.7542,5.7743,5.7681,5.768,5.7656,5.7667,5.7766,5.7778,5.7709,5.7704,5.7718,5.7793,5.7826,5.7836,5.7991,5.7852,5.7859,5.7865,5.7868,5.8272,5.8277,0,0,0,0,0,0,5.7519,5.7536,5.7739,5.7746,5.759,5.7665,5.7677,5.773,5.7777,5.778,5.7722,5.7713,5.7814,5.7826,5.7839,5.8022,5.7861,5.7869,5.7874,5.8266,5.8273,5.8279,0,0,0,0,0,0,5.7513,5.7538,5.7735,5.7639,5.7663,5.7676,5.7736,5.7735,5.7768,5.7787,5.7787,5.7754,5.781,5.7827,5.7946,5.8025,5.7873,5.7881,5.826,5.8269,5.8276,5.8393,0,0,0,0,0,0,5.7505,5.7536,5.7599,5.7642,5.7668,5.7845,5.7741,5.7741,5.7785,5.7775,5.7817,5.7819,5.7807,5.7934,5.7955,5.8034,5.7888,5.8253,5.8264,5.8274,5.8382,5.8404,5.8423,0,0,0,0,0,5.7496,5.7626,5.7603,5.7628,5.7748,5.785,5.7865,5.7851,5.7792,5.7852,5.7863,5.7818,5.8013,5.7947,5.797,5.8053,5.8248,5.8261,5.8273,5.8373,5.84,5.8423,0,0,0,0,0,0,5.759,5.7632,5.7606,5.7755,5.78,5.7836,5.7913,5.7881,5.7941,5.7928,5.7906,5.7916,5.8041,5.8059,5.7984,5.8204,5.812,5.8138,5.8189,5.8214,5.8235,5.8227,5.7895,0,0,0,0,0,5.7629,5.7712,5.7742,5.7871,5.7895,5.79,5.7944,5.793,5.7974,5.7991,5.8011,5.8053,5.8123,5.817,5.8235,5.8384,5.839,5.8452,5.8473,5.8489,5.8504,5.858,5.8607,5.832,5.832,5.832,0,0,5.7708,5.7741,5.7795,5.789,5.7923,5.8006,5.7917,5.8008,5.8068,5.8004,5.8119,5.8135,5.8179,5.8313,5.8373,5.8332,5.8585,5.8505,5.8519,5.8524,5.8596,5.8623,5.8647,5.8329,5.8327,5.8326,0,0,5.7895,5.7931,5.804,5.8075,5.8127,5.8129,5.8156,5.8197,5.8205,5.8321,5.8273,5.8342,5.8464,5.8497,5.853,5.8726,5.8685,5.8748,5.8855,5.8929,5.8952,5.8972,5.9039,5.9064,5.8763,5.8763,5.8764,0,5.7987,5.8114,5.8099,5.8195,5.8236,5.8185,5.8292,5.8326,5.8395,5.8423,5.8376,5.8527,5.8553,5.8693,5.8741,5.877,5.8796,5.8743,5.8951,5.897,5.8988,5.9052,5.9078,5.8771,5.877,5.8769,5.8768,0,5.8222,5.831,5.8391,5.8462,5.8512,5.8614,5.8611,5.8663,5.8643,5.8649,5.8764,5.8794,5.8863,5.8895,5.8877,5.9031,5.9004,5.8954,5.8869,5.9023,5.9083,5.9107,5.8781,5.8778,5.8776,5.8774,0,0,5.8472,5.8533,5.8563,5.8593,5.8646,5.8711,5.8807,5.8878,5.8921,5.897,5.9048,5.9151,5.9105,5.9142,5.9126,5.9192,5.9342,5.9134,5.9134,5.9169,5.951,5.9546,5.9575,5.9315,5.932,5.9324,5.9506,0,5.866,5.8832,5.8821,5.8981,5.9059,5.901,5.9093,5.9131,5.9139,5.9203,5.9209,5.9282,5.9218,5.9239,5.9302,5.9311,5.941,5.9297,5.9384,5.9387,5.9373,5.9607,5.9645,5.9816,5.9529,5.9533,5.9536,0,5.8903,5.8962,5.9131,5.9168,5.9201,5.9277,5.9338,5.9402,5.9443,5.9443,5.9484,5.9456,5.9548,5.9462,5.9587,5.9511,5.9545,5.9554,5.956,5.9566,5.947,5.9617,5.987,5.9895,5.9573,5.957,5.9567,0,5.9065,5.9187,5.9303,5.933,5.9378,5.9431,5.9453,5.9489,5.9531,5.9584,5.961,5.9672,5.9706,5.9753,5.974,5.9679,5.9867,5.9781,5.9867,5.9867,5.9907,5.9905,6.0168,5.9933,5.9932,5.9932,5.9931,0,5.9275,5.9379,5.9376,5.9447,5.9561,5.9545,5.9656,5.9671,5.9703,5.9773,5.9733,5.9798,5.9779,5.9843,5.9833,5.9936,5.9952,5.9952,5.9948,5.9955,5.9955,5.9976,5.9963,5.9939,5.9937,5.9936,5.9935,0,5.9476,5.9478,5.9601,5.9636,5.9647,5.9729,5.9757,5.9821,5.9825,5.9913,5.9933,5.9937,6.001,6.0003,6.0083,6.0077,6.0204,6.0186,6.0191,6.0187,6.0272,6.0264,6.0557,6.0593,6.0336,6.0339,6.0341,0,5.9609,5.9688,5.9732,5.9777,5.9803,5.9877,5.992,5.9905,5.9951,6.0002,6.0059,6.0129,6.0183,6.0301,6.0309,6.0369,6.0351,6.045,6.036,6.0364,6.035,6.0345,6.0351,6.0467,6.047,6.0473,6.0474,0,5.9844,5.9841,5.9907,5.9972,6.0025,6.0075,6.012,6.0158,6.0148,6.02,6.0275,6.0318,6.04,6.0468,6.0525,6.0543,6.0506,6.0503,6.0525,6.0533,6.0531,6.0531,6.0237,6.0496,6.0494,6.0492,6.0491,6.049,6.0013,6.008,6.0121,6.0194,6.0227,6.027,6.0332,6.0344,6.0407,6.0475,6.0461,6.0545,6.0579,6.0653,6.0676,6.0738,6.0702,6.0735,6.0744,6.0752,6.0761,6.0523,6.0748,6.0748,6.0747,6.0747,6.0746,0,6.0244,6.0268,6.0336,6.0401,6.0457,6.0421,6.0468,6.0517,6.0592,6.0629,6.0684,6.0767,6.0833,6.0846,6.0907,6.0954,6.0938,6.097,6.0966,6.097,6.0791,6.0764,6.0982,6.0982,6.0982,6.0981,6.0981,6.0981,6.0371,6.0482,6.0483,6.0608,6.0629,6.0713,6.0743,6.078,6.081,6.0906,6.0961,6.097,6.0996,6.1059,6.1115,6.1117,6.114,6.1179,6.1174,6.1006,6.0983,6.096,6.0935,6.1184,6.1185,6.1347,6.1348,6.1349]}]]